Date String (YYYY-MM-DD hh:mm:ss) UTC,Instrument flags,Ambient pressure (hPa),Sample flow (lpm),Bypass flow (lpm),Sample temperature (°C),Ambient temperature (°C),ASC tube jacket temperature (°C),LED temperature (°C),Box temperature (°C),Sample RH (%),Span deviation,Mass concentration (μg/m³),Mass concentration (μg/m³),Mass concentration (μg/m³)
DateTimeUTC,F1_M11,P_M11,Q1_M11,Q2_M11,T1_M11,T2_M11,T3_M11,T4_M11,T5_M11,U1_M11,ZSPAN_M11,X0_M11,X2_M11,X1_M11
2022-02-21 13:00:00,,0812.0,4.99,0.00,21.6,21.0,00.0,30.7,23.4,07.4,0000.0,0002.41,0000.84,0000.53
2022-02-21 13:01:00,,0812.0,5.01,0.00,21.6,21.0,00.0,30.7,23.3,07.4,0000.0,0002.35,0000.80,0000.52
2022-02-21 13:02:00,,0812.0,5.01,0.00,21.6,21.0,00.0,30.7,23.3,07.4,0000.0,0003.52,0000.78,0000.52
2022-02-21 13:03:00,,0812.0,5.00,0.00,21.6,21.2,00.0,30.7,23.3,07.4,0000.0,0004.35,0000.78,0000.52
2022-02-21 13:04:00,,0812.0,4.99,0.00,21.7,21.8,00.0,30.7,23.6,07.3,0000.0,0004.78,0000.78,0000.51
2022-02-21 13:05:00,,0812.0,5.02,0.00,21.9,22.6,00.0,30.8,23.9,07.3,0000.0,0005.49,0000.81,0000.51
2022-02-21 13:06:00,,0812.1,5.00,0.00,22.0,22.7,00.0,30.8,24.0,07.2,0000.0,0005.62,0000.84,0000.52
2022-02-21 13:07:00,,0812.0,5.01,0.00,22.0,22.4,00.0,30.8,23.9,07.2,0000.0,0005.54,0000.86,0000.51
2022-02-21 13:08:00,,0812.1,4.99,0.00,22.0,22.2,00.0,30.9,23.9,07.2,0000.0,0005.38,0000.88,0000.51
2022-02-21 13:09:00,,0812.1,5.00,0.00,22.0,22.0,00.0,30.9,23.8,07.2,0000.0,0005.34,0000.87,0000.51
2022-02-21 13:10:00,,0812.1,5.00,0.00,22.0,21.9,00.0,30.9,23.8,07.3,0000.0,0005.27,0000.86,0000.51
2022-02-21 13:11:00,,0812.1,4.99,0.00,22.0,21.8,00.0,30.9,23.9,07.2,0000.0,0005.31,0000.85,0000.50
2022-02-21 13:12:00,,0812.1,5.01,0.00,22.0,21.8,00.0,30.9,23.8,07.2,0000.0,0006.40,0000.85,0000.50
2022-02-21 13:13:00,,0812.0,5.01,0.00,22.0,21.7,00.0,30.9,23.8,07.3,0000.0,0005.49,0000.84,0000.50
2022-02-21 13:14:00,,0812.0,4.99,0.00,22.0,21.7,00.0,31.0,23.9,07.2,0000.0,0004.34,0000.84,0000.50
2022-02-21 13:15:00,,0812.0,5.00,0.00,22.1,21.7,00.0,31.0,23.9,07.2,0000.0,0003.78,0000.86,0000.51
2022-02-21 13:16:00,,0812.0,4.99,0.00,22.1,21.6,00.0,31.0,23.9,07.1,0000.0,0003.24,0000.86,0000.51
2022-02-21 13:17:00,,0812.0,5.00,0.00,22.1,21.6,00.0,31.0,23.9,07.2,0000.0,0003.25,0000.88,0000.51
2022-02-21 13:18:00,,0812.0,5.01,0.00,22.1,21.6,00.0,31.0,23.9,07.1,0000.0,0003.22,0000.85,0000.52
2022-02-21 13:19:00,,0811.9,5.00,0.00,22.1,21.6,00.0,31.0,23.9,07.0,0000.0,0003.77,0000.84,0000.52
2022-02-21 13:20:00,,0811.9,5.00,0.00,22.1,21.6,00.0,31.0,23.9,07.1,0000.0,0004.52,0000.84,0000.53
2022-02-21 13:21:00,,0811.9,4.99,0.00,22.1,21.6,00.0,31.0,23.9,07.1,0000.0,0004.53,0000.84,0000.53
2022-02-21 13:22:00,,0812.0,5.01,0.00,22.1,21.5,00.0,31.0,23.8,07.1,0000.0,0004.66,0000.85,0000.53
2022-02-21 13:23:00,,0811.9,4.99,0.00,22.0,21.5,00.0,31.0,23.8,07.1,0000.0,0003.47,0000.84,0000.54
2022-02-21 13:24:00,,0811.9,4.99,0.00,22.0,21.4,00.0,31.0,23.8,07.1,0000.0,0003.24,0000.87,0000.53
2022-02-21 13:25:00,,0811.9,5.00,0.00,22.0,21.4,00.0,31.0,23.8,07.1,0000.0,0003.82,0000.94,0000.53
2022-02-21 13:26:00,,0811.9,5.01,0.00,22.0,21.3,00.0,31.0,23.7,07.1,0000.0,0003.86,0000.97,0000.54
2022-02-21 13:27:00,,0812.0,5.02,0.00,21.9,21.3,00.0,31.0,23.7,07.2,0000.0,0003.75,0000.95,0000.54
2022-02-21 13:28:00,,0811.9,5.00,0.00,21.9,21.3,00.0,31.0,23.6,07.2,0000.0,0003.67,0000.93,0000.55
2022-02-21 13:29:00,,0811.9,5.00,0.00,21.9,21.2,00.0,31.0,23.6,07.2,0000.0,0003.77,0000.98,0000.55
2022-02-21 13:30:00,,0811.9,5.00,0.00,21.9,21.2,00.0,31.0,23.6,07.2,0000.0,0003.43,0001.00,0000.54
2022-02-21 13:31:00,,0811.9,5.00,0.00,21.9,21.2,00.0,31.0,23.6,07.2,0000.0,0002.51,0001.01,0000.53
2022-02-21 13:32:00,,0811.9,5.01,0.00,21.9,21.2,00.0,31.0,23.6,07.2,0000.0,0002.54,0001.03,0000.53
2022-02-21 13:33:00,,0811.9,5.00,0.00,21.9,21.2,00.0,31.0,23.6,07.1,0000.0,0002.53,0001.02,0000.52
2022-02-21 13:34:00,,0811.9,4.99,0.00,21.9,21.3,00.0,31.0,23.7,07.2,0000.0,0003.05,0001.04,0000.52
2022-02-21 13:35:00,,0811.9,5.00,0.00,21.9,21.3,00.0,31.0,23.7,07.1,0000.0,0002.98,0001.02,0000.53
2022-02-21 13:36:00,,0811.9,5.00,0.00,21.9,21.3,00.0,31.0,23.7,07.1,0000.0,0002.43,0000.96,0000.53
2022-02-21 13:37:00,,0811.9,5.01,0.00,21.9,21.3,00.0,31.0,23.7,07.1,0000.0,0002.64,0000.94,0000.52
2022-02-21 13:38:00,,0811.9,5.00,0.00,21.9,21.4,00.0,31.0,23.7,07.1,0000.0,0002.57,0000.91,0000.51
2022-02-21 13:39:00,,0811.9,4.99,0.00,22.0,21.4,00.0,31.0,23.8,07.1,0000.0,0002.56,0000.89,0000.51
2022-02-21 13:40:00,,0811.9,5.01,0.00,22.0,21.4,00.0,31.0,23.8,07.1,0000.0,0002.46,0000.86,0000.51
2022-02-21 13:41:00,,0812.0,5.00,0.00,22.0,21.4,00.0,31.0,23.8,07.1,0000.0,0002.50,0000.89,0000.52
2022-02-21 13:42:00,,0811.9,5.00,0.00,22.0,21.4,00.0,31.0,23.7,07.1,0000.0,0002.57,0000.91,0000.53
2022-02-21 13:43:00,,0811.9,4.99,0.00,21.9,21.3,00.0,31.0,23.7,07.2,0000.0,0002.63,0000.92,0000.53
2022-02-21 13:44:00,,0811.9,5.02,0.00,21.9,21.3,00.0,31.0,23.6,07.3,0000.0,0002.94,0000.96,0000.54
2022-02-21 13:45:00,,0811.9,4.99,0.00,21.9,21.3,00.0,31.0,23.7,07.4,0000.0,0002.49,0000.98,0000.55
2022-02-21 13:46:00,,0811.9,5.00,0.00,21.9,21.3,00.0,31.0,23.7,07.3,0000.0,0002.73,0000.98,0000.55
2022-02-21 13:47:00,,0811.9,4.99,0.00,22.0,21.3,00.0,31.0,23.7,07.2,0000.0,0002.88,0001.01,0000.54
2022-02-21 13:48:00,,0811.9,5.00,0.00,22.0,21.3,00.0,31.0,23.7,07.2,0000.0,0002.59,0000.99,0000.54
2022-02-21 13:49:00,,0811.9,5.01,0.00,22.0,21.4,00.0,31.0,23.7,07.2,0000.0,0002.61,0001.00,0000.55
2022-02-21 13:50:00,,0811.9,5.00,0.00,22.0,21.4,00.0,31.0,23.8,07.2,0000.0,0003.31,0001.00,0000.55
2022-02-21 13:51:00,,0811.9,4.99,0.00,22.0,21.3,00.0,31.0,23.7,07.1,0000.0,0003.52,0001.00,0000.55
2022-02-21 13:52:00,,0811.9,4.99,0.00,22.0,21.4,00.0,31.0,23.7,07.2,0000.0,0003.83,0000.98,0000.54
2022-02-21 13:53:00,,0811.9,5.00,0.00,22.0,21.4,00.0,31.0,23.7,07.2,0000.0,0003.96,0001.02,0000.54
2022-02-21 13:54:00,,0811.9,5.02,0.00,22.0,21.3,00.0,31.0,23.7,07.2,0000.0,0003.98,0000.99,0000.53
2022-02-21 13:55:00,,0811.9,4.99,0.00,22.0,21.3,00.0,31.0,23.7,07.2,0000.0,0003.78,0000.99,0000.53
2022-02-21 13:56:00,,0811.9,5.00,0.00,21.9,21.3,00.0,31.0,23.7,07.2,0000.0,0003.61,0000.98,0000.52
2022-02-21 13:57:00,,0812.0,5.00,0.00,21.9,21.3,00.0,31.0,23.7,07.2,0000.0,0003.36,0000.96,0000.51
2022-02-21 13:58:00,,0811.9,5.01,0.00,21.9,21.2,00.0,31.0,23.6,07.3,0000.0,0003.27,0000.94,0000.51
2022-02-21 13:59:00,,0811.9,5.00,0.00,21.9,21.2,00.0,30.9,23.6,07.3,0000.0,0003.29,0000.94,0000.51
